• Em Portugal
  • Lista de países
  • Para 7 dias
  • Temperatura da água
  • Mapas de satélite
  • Mapa do tempo
  • Widgets de tempo
  • user-avatar
    Iniciar Sessão

    Previsão horária em Wilczewo

    Hoje, 23 Outubro, Terça-feira

    Tempo Temperatura Precipitação Vento Pressão Humidade
    00:00 +5°C° 0 mm 4 m/s 758 mmHg 86%
    01:00 +3°C° 0 mm 5 m/s 758 mmHg 87%
    02:00 +5°C° 0 mm 5 m/s 757 mmHg 87%
    03:00 +4°C° 0 mm 6 m/s 756 mmHg 86%
    04:00 +4°C° 0 mm 6 m/s 755 mmHg 85%
    05:00 +4°C° 0.5 mm 7 m/s 753 mmHg 84%
    06:00 +4°C° 0.5 mm 8 m/s 752 mmHg 82%
    07:00 +4°C° 0.5 mm 8 m/s 750 mmHg 81%
    08:00 +3°C° 0.9 mm 9 m/s 749 mmHg 80%
    09:00 +5°C° 0.9 mm 10 m/s 747 mmHg 79%
    10:00 +4°C° 0.9 mm 11 m/s 746 mmHg 79%
    11:00 +6°C° 1 mm 11 m/s 745 mmHg 80%
    12:00 +7°C° 1 mm 10 m/s 743 mmHg 81%
    13:00 +7°C° 1 mm 10 m/s 742 mmHg 82%
    14:00 +8°C° 0.9 mm 9 m/s 741 mmHg 79%
    15:00 +8°C° 0.9 mm 9 m/s 741 mmHg 77%
    16:00 +9°C° 0.9 mm 8 m/s 740 mmHg 74%
    17:00 +9°C° 0.1 mm 8 m/s 740 mmHg 74%
    18:00 +7°C° 0.1 mm 8 m/s 739 mmHg 74%
    19:00 +7°C° 0.1 mm 8 m/s 739 mmHg 74%
    20:00 +7°C° 0.1 mm 8 m/s 739 mmHg 74%
    21:00 +6°C° 0.1 mm 7 m/s 738 mmHg 73%
    22:00 +6°C° 0.1 mm 7 m/s 738 mmHg 73%
    23:00 +6°C° 0.2 mm 8 m/s 737 mmHg 70%

    Amanhã, 24 Outubro, Quarta-feira

    Tempo Temperatura Precipitação Vento Pressão Humidade
    00:00 +6°C° 0.2 mm 8 m/s 737 mmHg 68%
    01:00 +5°C° 0.2 mm 8 m/s 736 mmHg 65%
    02:00 +5°C° 0.3 mm 9 m/s 737 mmHg 64%
    03:00 +5°C° 0.3 mm 9 m/s 737 mmHg 63%
    04:00 +3°C° 0.3 mm 10 m/s 738 mmHg 62%
    05:00 +3°C° 0.1 mm 9 m/s 739 mmHg 60%
    06:00 +2°C° 0.1 mm 9 m/s 739 mmHg 58%
    07:00 +2°C° 0.1 mm 9 m/s 740 mmHg 56%
    08:00 +2°C° 0.1 mm 10 m/s 741 mmHg 56%
    09:00 +3°C° 0.1 mm 11 m/s 741 mmHg 55%
    10:00 +4°C° 0.1 mm 12 m/s 742 mmHg 54%
    11:00 +4°C° 0.1 mm 12 m/s 742 mmHg 54%
    12:00 +4°C° 0.1 mm 13 m/s 743 mmHg 54%
    13:00 +5°C° 0.1 mm 13 m/s 744 mmHg 54%
    14:00 +5°C° 0 mm 12 m/s 744 mmHg 55%
    15:00 +4°C° 0 mm 11 m/s 745 mmHg 55%
    16:00 +4°C° 0 mm 11 m/s 746 mmHg 55%
    17:00 +5°C° 0 mm 10 m/s 747 mmHg 56%
    18:00 +5°C° 0 mm 9 m/s 747 mmHg 57%
    19:00 +5°C° 0 mm 8 m/s 748 mmHg 59%
    20:00 +4°C° 0 mm 7 m/s 748 mmHg 61%
    21:00 +4°C° 0 mm 7 m/s 749 mmHg 63%
    22:00 +4°C° 0 mm 6 m/s 749 mmHg 65%
    23:00 +3°C° 0 mm 6 m/s 749 mmHg 67%

    Depois de amanhã, 25 Outubro, Quinta-feira

    Tempo Temperatura Precipitação Vento Pressão Humidade
    00:00 +3°C° 0 mm 5 m/s 749 mmHg 69%
    01:00 +2°C° 0 mm 5 m/s 749 mmHg 71%
    02:00 +2°C° 0 mm 5 m/s 748 mmHg 73%
    03:00 +2°C° 0 mm 5 m/s 748 mmHg 75%
    04:00 +2°C° 0 mm 5 m/s 747 mmHg 77%
    05:00 +3°C° 0.6 mm 5 m/s 746 mmHg 81%
    06:00 +3°C° 0.6 mm 6 m/s 745 mmHg 84%
    07:00 +3°C° 0.6 mm 7 m/s 744 mmHg 87%
    08:00 +5°C° 0.6 mm 8 m/s 743 mmHg 81%
    09:00 +7°C° 0.6 mm 9 m/s 742 mmHg 75%
    10:00 +9°C° 0.6 mm 10 m/s 742 mmHg 68%
    11:00 +9°C° 0.1 mm 10 m/s 742 mmHg 66%
    12:00 +9°C° 0.1 mm 10 m/s 742 mmHg 64%
    13:00 +9°C° 0.1 mm 10 m/s 742 mmHg 62%
    14:00 +8°C° 0 mm 9 m/s 742 mmHg 64%
    15:00 +9°C° 0 mm 8 m/s 743 mmHg 66%
    16:00 +8°C° 0 mm 7 m/s 743 mmHg 67%
    17:00 +8°C° 0 mm 6 m/s 744 mmHg 70%
    18:00 +7°C° 0 mm 6 m/s 744 mmHg 73%
    19:00 +7°C° 0 mm 5 m/s 745 mmHg 76%
    20:00 +7°C° 0 mm 5 m/s 745 mmHg 78%
    21:00 +7°C° 0 mm 5 m/s 746 mmHg 79%
    22:00 +6°C° 0 mm 5 m/s 746 mmHg 80%
    23:00 +6°C° 0 mm 5 m/s 746 mmHg 82%

    26 Outubro, Sexta-feira

    Tempo Temperatura Precipitação Vento Pressão Humidade
    00:00 +6°C° 0 mm 5 m/s 746 mmHg 84%
    01:00 +6°C° 0 mm 5 m/s 747 mmHg 86%
    02:00 +5°C° 0 mm 5 m/s 747 mmHg 87%
    03:00 +5°C° 0 mm 4 m/s 747 mmHg 89%
    04:00 +5°C° 0 mm 4 m/s 747 mmHg 90%
    05:00 +5°C° 0 mm 4 m/s 747 mmHg 89%
    06:00 +6°C° 0 mm 4 m/s 747 mmHg 88%
    07:00 +6°C° 0 mm 4 m/s 747 mmHg 87%
    08:00 +6°C° 0.1 mm 4 m/s 747 mmHg 84%
    09:00 +7°C° 0.1 mm 4 m/s 747 mmHg 80%
    10:00 +8°C° 0.1 mm 5 m/s 747 mmHg 76%
    11:00 +8°C° 0 mm 5 m/s 747 mmHg 73%
    12:00 +9°C° 0 mm 5 m/s 747 mmHg 69%
    13:00 +9°C° 0 mm 5 m/s 747 mmHg 65%
    14:00 +10°C° 0 mm 4 m/s 746 mmHg 68%
    15:00 +8°C° 0 mm 4 m/s 746 mmHg 70%
    16:00 +8°C° 0 mm 4 m/s 746 mmHg 73%
    17:00 +8°C° 0.1 mm 4 m/s 745 mmHg 76%
    18:00 +8°C° 0.1 mm 5 m/s 745 mmHg 80%
    19:00 +8°C° 0.1 mm 5 m/s 744 mmHg 83%
    20:00 +8°C° 0.1 mm 5 m/s 744 mmHg 84%
    21:00 +8°C° 0.1 mm 6 m/s 743 mmHg 85%
    22:00 +8°C° 0.1 mm 6 m/s 743 mmHg 86%
    23:00 +8°C° 0 mm 6 m/s 743 mmHg 85%

    27 Outubro, Sábado

    Tempo Temperatura Precipitação Vento Pressão Humidade
    00:00 +8°C° 0 mm 6 m/s 742 mmHg 84%
    01:00 +8°C° 0 mm 6 m/s 742 mmHg 84%
    02:00 +8°C° 0.1 mm 6 m/s 741 mmHg 84%
    03:00 +8°C° 0.1 mm 6 m/s 741 mmHg 85%
    04:00 +8°C° 0.1 mm 6 m/s 741 mmHg 85%
    05:00 +7°C° 0 mm 6 m/s 741 mmHg 84%
    06:00 +7°C° 0 mm 6 m/s 741 mmHg 82%
    07:00 +7°C° 0 mm 6 m/s 741 mmHg 81%
    08:00 +6°C° 0 mm 7 m/s 741 mmHg 75%
    09:00 +6°C° 0 mm 7 m/s 742 mmHg 69%
    10:00 +7°C° 0 mm 8 m/s 742 mmHg 63%
    11:00 +7°C° 0 mm 8 m/s 742 mmHg 61%
    12:00 +7°C° 0 mm 8 m/s 742 mmHg 59%
    13:00 +8°C° 0 mm 7 m/s 742 mmHg 57%
    14:00 +6°C° 0 mm 7 m/s 742 mmHg 58%
    15:00 +7°C° 0 mm 6 m/s 742 mmHg 59%
    16:00 +7°C° 0 mm 5 m/s 742 mmHg 60%
    17:00 +6°C° 0 mm 5 m/s 743 mmHg 60%
    18:00 +6°C° 0 mm 5 m/s 743 mmHg 61%
    19:00 +6°C° 0 mm 5 m/s 743 mmHg 61%
    20:00 +6°C° 0 mm 5 m/s 743 mmHg 62%
    21:00 +5°C° 0 mm 5 m/s 743 mmHg 63%
    22:00 +5°C° 0 mm 5 m/s 743 mmHg 63%
    23:00 +5°C° 0 mm 4 m/s 743 mmHg 64%

    28 Outubro, Domingo

    Tempo Temperatura Precipitação Vento Pressão Humidade
    00:00 +5°C° 0 mm 4 m/s 743 mmHg 65%
    01:00 +4°C° 0 mm 4 m/s 743 mmHg 67%
    02:00 +4°C° 0 mm 4 m/s 743 mmHg 69%
    03:00 +4°C° 0 mm 3 m/s 743 mmHg 71%
    04:00 +3°C° 0 mm 3 m/s 743 mmHg 73%
    05:00 +3°C° 0 mm 3 m/s 743 mmHg 75%
    06:00 +3°C° 0 mm 3 m/s 743 mmHg 77%
    07:00 +3°C° 0 mm 3 m/s 743 mmHg 78%
    08:00 +4°C° 0 mm 3 m/s 743 mmHg 76%
    09:00 +4°C° 0 mm 3 m/s 743 mmHg 73%
    10:00 +5°C° 0 mm 3 m/s 744 mmHg 71%
    11:00 +6°C° 0 mm 4 m/s 744 mmHg 69%
    12:00 +6°C° 0 mm 4 m/s 744 mmHg 68%
    13:00 +6°C° 0 mm 4 m/s 744 mmHg 67%
    14:00 +6°C° 0.1 mm 4 m/s 745 mmHg 67%
    15:00 +5°C° 0.1 mm 4 m/s 745 mmHg 67%
    16:00 +5°C° 0.1 mm 4 m/s 745 mmHg 67%
    17:00 +5°C° 0 mm 4 m/s 746 mmHg 69%
    18:00 +4°C° 0 mm 4 m/s 746 mmHg 70%
    19:00 +3°C° 0 mm 4 m/s 747 mmHg 72%
    20:00 +3°C° 0 mm 4 m/s 747 mmHg 72%
    21:00 +3°C° 0 mm 4 m/s 748 mmHg 72%
    22:00 +1°C° 0 mm 4 m/s 748 mmHg 72%
    23:00 +1°C° 0 mm 4 m/s 749 mmHg 72%

    29 Outubro, Segunda-feira

    Tempo Temperatura Precipitação Vento Pressão Humidade
    00:00 +1°C° 0 mm 4 m/s 749 mmHg 72%
    01:00 +1°C° 0 mm 5 m/s 749 mmHg 72%
    02:00 +1°C° 0.1 mm 5 m/s 749 mmHg 75%
    03:00 +2°C° 0.1 mm 5 m/s 750 mmHg 77%
    04:00 +2°C° 0.1 mm 5 m/s 750 mmHg 80%
    05:00 +2°C° 0 mm 5 m/s 750 mmHg 82%
    06:00 +3°C° 0 mm 4 m/s 751 mmHg 83%
    07:00 +1°C° 0 mm 4 m/s 751 mmHg 85%
    08:00 +3°C° 0 mm 4 m/s 752 mmHg 79%
    09:00 +4°C° 0 mm 4 m/s 752 mmHg 74%
    10:00 +5°C° 0 mm 4 m/s 753 mmHg 68%
    11:00 +6°C° 0 mm 4 m/s 753 mmHg 64%
    12:00 +6°C° 0 mm 4 m/s 753 mmHg 61%
    13:00 +7°C° 0 mm 4 m/s 753 mmHg 57%
    14:00 +7°C° 0 mm 3 m/s 753 mmHg 61%
    15:00 +5°C° 0 mm 3 m/s 753 mmHg 64%
    16:00 +5°C° 0 mm 2 m/s 753 mmHg 68%
    17:00 +5°C° 0 mm 2 m/s 753 mmHg 70%
    18:00 +5°C° 0 mm 2 m/s 753 mmHg 71%
    19:00 +4°C° 0 mm 2 m/s 753 mmHg 73%
    20:00 +4°C° 0 mm 2 m/s 753 mmHg 73%
    21:00 +4°C° 0 mm 2 m/s 753 mmHg 73%
    22:00 +5°C° 0 mm 1 m/s 753 mmHg 74%
    23:00 +5°C° 0.1 mm 1 m/s 753 mmHg 75%
    Mostrar mais